Simultaneous Nadir Overpasses (SNOs) Predictions

Prediction of SNOs between LANDSAT-8 and NOAA-19 Satellite Orbit:

Table of predicted SNOs for the next 14.0 days since TLE Epoch: 8/8/2020
Index Date (LANDSAT-8) Time (LANDSAT-8) Lat,Lon (LANDSAT-8) SZA (LANDSAT-8 ) Date (NOAA-19) Time (NOAA-19) Lat,Lon (NOAA-19) SZA (NOAA-19 ) Distance(km) Time Diff (sec)
1 08/08/2020 14:32:18 79.93, -10.94 65.05 08/08/2020 14:31:10 80.05, -13.63 64.93 53.49 68
2 08/08/2020 15:21:47 -79.86, 156.13 115.05 08/08/2020 15:22:04 -79.85, 156.15 115.05 1.18 17
3 08/10/2020 20:55:31 79.86,-107.32 65.61 08/10/2020 20:55:19 79.86,-107.25 65.61 1.62 12
4 08/13/2020 02:29:16 -79.86, -10.77 113.72 08/13/2020 02:28:37 -79.89, -10.75 113.71 3.38 39
5 08/13/2020 03:18:42 79.85, 156.85 66.29 08/13/2020 03:19:35 79.85, 156.94 66.31 1.62 53
6 08/15/2020 08:02:59 79.88, 86.00 67.02 08/15/2020 08:01:52 79.88, 86.14 67.00 2.73 67
7 08/15/2020 08:52:27 -79.85,-106.58 113.02 08/15/2020 08:52:52 -79.86,-106.43 112.99 3.06 25
8 08/17/2020 14:26:10 79.87, -9.85 67.74 08/17/2020 14:26:08 79.87, -9.71 67.74 2.86 2
9 08/19/2020 19:59:55 -79.87, 86.73 111.53 08/19/2020 19:59:24 -79.88, 86.86 111.52 2.69 31
10 08/19/2020 20:49:21 79.87,-105.70 68.47 08/19/2020 20:50:24 79.86,-105.57 68.50 2.80 63
11 08/22/2020 01:33:38 79.89,-176.59 69.25 08/22/2020 01:32:41 79.89,-176.42 69.24 3.30 57
